Regional Weather Roundup
Issued by NWS

Home | Current Version | Previous Version | Text Only | Print | Product List | Glossary Off
Versions: 1 2 3 4 5 6 7 8 9 10 11 12 13 14 15 16 17 18 19 20 21 22 23 24 25 26 27 28 29 30 31 32 33 34 35 36 37 38 39 40 41 42 43 44 45 46 47 48 49 50

032
ASUS43 KFSD 240302
RWRSD

WEATHER ROUNDUP FOR SOUTH DAKOTA
NATIONAL WEATHER SERVICE SIOUX FALLS SD
1000 PM CDT WED MAY 23 2018

NOTE: "FAIR" INDICATES FEW OR NO CLOUDS BELOW 12,000 FEET WITH NO
SIGNIFICANT WEATHER AND/OR OBSTRUCTIONS TO VISIBILITY.


SDZ001>005-009-010-012>017-240400-
NORTHWEST AND NORTH CENTRAL SOUTH DAKOTA

CITY           SKY/WX    TMP DP  RH WIND       PRES   REMARKS
BUFFALO          N/A     67  49  52 SE5       29.80F
FAITH            N/A     67  64  90 S8        29.85F
MOBRIDGE       PTCLDY    72  64  76 E8        29.82R
$$

SDZ012>016-024>037-041>051-057-063-072>074-240400-
SOUTHWEST AND SOUTH CENTRAL SOUTH DAKOTA

CITY           SKY/WX    TMP DP  RH WIND       PRES   REMARKS
RAPID CTY ARPT CLOUDY    69  46  43 SW15G24   29.90R
PIERRE         MOCLDY    72  64  76 SE8       29.82R
CUSTER         LGT RAIN  62  35  36 SE15      30.01F
ELLSWORTH AFB  CLOUDY    67  48  50 S8        29.88R
PHILIP         TSTM      61  58  90 W31G47    29.94R FOG
PINE RIDGE     LGT RAIN  61  53  75 W17G25    30.00R
SPEARFISH      LGT RAIN  57  54  88 S5G14     29.93F
WINNER         FAIR      74  60  61 SE10      29.88R
$$

SDZ004>011-016>023-039-040-240400-
NORTHEAST SOUTH DAKOTA

CITY           SKY/WX    TMP DP  RH WIND       PRES   REMARKS
ABERDEEN       CLEAR     74  62  66 SE8       29.88R
WATERTOWN      PTCLDY    73  69  87 E6        29.95R
BROOKINGS      CLOUDY    74  63  68 SE9       29.96R
SISSETON         N/A     70  65  84 SE13      29.94S
$$

SDZ017-020-022-023-036>040-048>070-240400-
SOUTHEAST SOUTH DAKOTA

CITY           SKY/WX    TMP DP  RH WIND       PRES   REMARKS
SIOUX FALLS    MOCLDY    80  61  52 S15G23    29.95R
HURON          PTCLDY    75  62  64 SE9       29.88R
CHAMBERLAIN    PTCLDY    71  65  81 SE9       29.88R
MITCHELL       MOCLDY    76  62  62 S9        29.90R
YANKTON        MOCLDY    77  58  51 S13       29.93F
$$

ABBREVIATIONS USED IN REMARKS
   TC - TEMPERATURE IN CELSIUS
  WCI - WIND CHILL INDEX
   HX - HEAT INDEX
  VSB - VISIBILITY





USA.gov is the U.S. government's official web portal to all federal, state and local government web resources and services.